Location: Newark
(42.9277°N, 71.8621°W)
Time: 11:32:31
(UTC+00:00)

Transit 4A - Visible Passes

Search period start: 12 May 2021 00:00
Search period end: 22 May 2021 00:00
Orbit: 870 x 974 km, 66.8° (Epoch: 12 May)

Date Brightness Start Highest point End Pass type
(mag) Time Alt. Az. Time Alt. Az. Time Alt. Az.
12 May 10.3 00:39:18 10° WSW 00:44:29 27° NW 00:49:34 10° NNE visible
12 May 10.5 06:08:24 10° N 06:12:12 17° NE 06:15:58 10° ENE visible
12 May 7.9 07:53:41 10° NNW 07:59:33 77° ENE 08:05:22 10° SE visible
13 May 10.6 00:49:38 10° W 00:54:07 21° NW 00:58:33 10° N visible
13 May 10.1 06:17:19 10° N 06:21:54 23° NE 06:26:26 10° E visible
13 May 7.7 08:03:00 10° NW 08:08:51 73° WSW 08:14:37 10° SSE visible
14 May 10.8 01:00:17 10° WNW 01:03:51 16° NW 01:07:23 10° N visible
14 May 9.6 06:26:21 10° NNW 06:31:30 31° NE 06:36:36 10° ESE visible
14 May 7.9 08:12:27 10° NW 08:18:03 49° WSW 08:23:37 10° S visible
15 May 10.9 01:11:22 10° NW 01:13:40 12° NNW 01:15:58 10° N visible
15 May 10.7 04:51:16 10° N 04:52:58 11° NNE 04:54:41 10° NE visible
15 May 8.9 06:35:27 10° NNW 06:41:01 43° NE 06:46:30 10° ESE visible
15 May 8.4 08:22:04 10° NW 08:27:11 33° WSW 08:32:17 10° S visible
16 May 10.5 04:59:40 10° N 05:02:49 15° NNE 05:05:57 10° ENE visible
16 May 8.2 06:44:38 10° NNW 06:50:26 61° NE 06:56:11 10° SE visible
16 May 8.9 08:31:57 10° WNW 08:36:15 22° WSW 08:40:33 10° SSW visible
17 May 10.2 05:08:28 10° N 05:12:34 19° NE 05:16:38 10° E visible
17 May 7.7 06:53:54 10° NNW 06:59:47 88° ENE 07:05:36 10° SSE visible
17 May 9.4 08:42:25 10° WNW 08:45:15 14° WSW 08:48:05 10° SW visible
18 May 9.7 05:17:26 10° NNW 05:22:14 25° NE 05:26:59 10° E visible
18 May 7.7 07:03:16 10° NW 07:09:02 64° WSW 07:13:40 16° SSE visible
19 May 9.2 05:26:29 10° NNW 05:31:48 34° NE 05:37:03 10° ESE visible
19 May 8.1 07:12:45 10° NW 07:18:13 42° WSW 07:20:53 26° SSW visible
20 May 10.4 03:51:05 10° N 03:53:24 12° NNE 03:55:42 10° NE visible
20 May 8.6 05:35:37 10° NNW 05:41:17 48° NE 05:45:12 19° ESE visible
20 May 8.6 07:22:28 10° NW 07:27:20 28° WSW 07:28:37 26° SW visible
21 May 10.2 03:59:41 10° N 04:03:13 16° NE 04:06:42 10° ENE visible
21 May 7.9 05:44:50 10° NNW 05:50:41 70° ENE 05:53:12 35° SE visible
21 May 9.1 07:32:29 10° WNW 07:36:22 19° WSW 07:36:39 19° WSW visible
